Location: Agendoh
(31.0664°N, 8.9343°W)
Time: 09:04:26
(UTC+00:00)

Cosmos 1151 Rocket - Pass Details

Date: 06 December 2021
Orbit: 591 x 616 km, 82.5° (Epoch: 24 January)

Event Time Altitude Azimuth Distance (km) Brightness Sun altitude
Exits shadow 05:42:34 16° 355° (N) 1,624 5.0 -20.4°
Maximum altitude 05:46:04 86° 83° (E) 619 3.0 -19.7°
Drops below altitude 10° 05:50:24 10° 174° (S) 1,957 5.9 -18.8°
Sets 05:52:36 0° 174° (S) 2,854 6.8 -18.4°
